Regional Weather Roundup
Issued by NWS

Home | Current Version | Previous Version | Graphics & Text | Print | Product List | Glossary On
Versions: 1 2 3 4 5 6 7 8 9 10 11 12 13 14 15 16 17 18 19 20 21 22 23 24 25 26 27 28 29 30 31 32 33 34 35 36 37 38 39 40 41 42 43 44 45 46 47 48 49 50
567
ASUS43 KLSX 171407
RWRMO

WEATHER SUMMARY FOR MISSOURI
NATIONAL WEATHER SERVICE SPRINGFIELD MO
800 AM CST TUE JAN 17 2017

NOTE: "FAIR" INDICATES FEW OR NO CLOUDS BELOW 12,000 FEET WITH NO
       SIGNIFICANT WEATHER AND/OR OBSTRUCTIONS TO VISIBILITY.
       CURRENT SKY AND/OR WEATHER CONDITIONS ARE NOT AVAILABLE FOR
       CHILLICOTHE AND FARMINGTON.

MOZ001>031-035>038-043-044-053-054-171500-
...NORTHERN AND WESTERN MISSOURI...

CITY           SKY/WX    TMP DP  RH WIND       PRES   REMARKS
KANSAS CTY INT CLOUDY    34  33  96 W7        30.05R FOG     WCI  28
KANSAS C DTWN  CLOUDY    36  34  92 W6        30.06R
LEE`S SUMMIT   CLOUDY    34  33  96 MISG      30.05R
ST JOSEPH      CLOUDY    33  33 100 NW6       30.06R FOG     WCI  28
CHILLICOTHE      N/A     34  34 100 W3        30.04R
KIRKSVILLE     CLOUDY    35  33  92 W9        29.99R WCI  28

$$
MOZ066>068-077>081-088>096-101>105-171500-
...SOUTHWEST MISSOURI...

CITY           SKY/WX    TMP DP  RH WIND       PRES   REMARKS
SPRINGFIELD    CLOUDY    37  35  92 W9        30.05S
JOPLIN         CLOUDY    37  36  96 W9        30.11R
BRANSON        CLOUDY    39  36  87 W6        30.07S

$$
MOZ032>034-039>042-045>050-055>058-069>072-171500-
...CENTRAL MISSOURI...

CITY           SKY/WX    TMP DP  RH WIND       PRES   REMARKS
COLUMBIA       CLOUDY    38  38 100 W12       30.03R FOG
JEFFERSON CITY CLOUDY    40  36  86 W12       30.05R
ROLLA          CLOUDY    39  38  96 W13G21    30.01R FOG
SEDALIA        CLOUDY    37  36  96 W7        30.06R FOG
WHITEMAN AFB   CLOUDY    36  36 100 W9        30.04R WCI  29
WARRENSBURG    CLOUDY    34  34 100 W6        30.06R FOG     WCI  29
OSAGE BEACH    CLOUDY    39  37  92 W10       30.06R

$$
MOZ051-052-059>065-171500-
...EAST CENTRAL MISSOURI...

CITY           SKY/WX    TMP DP  RH WIND       PRES   REMARKS
ST LOUIS INTL  CLOUDY    44  37  76 W17G23    29.98R
SPIRIT OF STL  MOCLDY    43  38  82 SW13      30.00R
ST CHARLES     CLOUDY    42  39  89 W9        29.98S

$$
MOZ072>076-082>087-097>100-106>115-171500-
...SOUTH CENTRAL AND SOUTHEAST MISSOURI...

CITY           SKY/WX    TMP DP  RH WIND       PRES   REMARKS
CAPE GIRARDEAU PTCLDY    43  39  86 SW8       30.02R
FARMINGTON     CLOUDY    41  37  86 W7        30.02R
POPLAR BLUFF   PTCLDY    42  37  82 W8        30.05R
WEST PLAINS    CLOUDY    40  37  89 NW8       30.03S

$$



USA.gov is the U.S. government's official web portal to all federal, state and local government web resources and services.